Location: Guayaquil
(2.1667°S, 79.9000°W)
Time: 14:57:44
(UTC-05:00)

Envisat - Visible Passes

Search period start: 26 January 2021 00:00
Search period end: 05 February 2021 00:00
Orbit: 764 x 766 km, 98.1° (Epoch: 26 January)

Date Brightness Start Highest point End Pass type
(mag) Time Alt. Az. Time Alt. Az. Time Alt. Az.
26 Jan 3.0 05:52:27 10° N 05:57:28 65° WNW 06:02:30 10° SSW visible
27 Jan 4.3 05:15:58 10° NNE 05:20:45 43° ESE 05:25:34 10° S visible
28 Jan 6.0 04:41:09 10° ENE 04:44:05 15° ESE 04:47:01 10° SE visible
29 Jan 3.0 05:41:01 10° NNE 05:46:04 88° WNW 05:51:11 10° SSW visible
30 Jan 4.9 05:04:55 10° NE 05:09:23 32° ESE 05:13:51 10° SSE visible
31 Jan 6.3 04:31:26 10° E 04:32:43 11° ESE 04:34:01 10° ESE visible
31 Jan 3.4 06:06:40 10° N 06:11:25 42° WNW 06:16:12 10° SSW visible
01 Feb 3.4 05:29:40 10° NNE 05:34:42 68° ESE 05:39:45 10° S visible
02 Feb 5.4 04:54:01 10° NE 04:58:00 24° ESE 05:02:00 10° SSE visible
03 Feb 3.1 05:55:04 10° N 06:00:01 58° WNW 06:05:01 10° SSW visible
04 Feb 4.0 05:18:27 10° NNE 05:23:18 49° ESE 05:28:13 10° S visible
